Starlink 31510

operational
NORAD ID: 59575 Int'l Des: 2024-076 Owner: SPXS Country: US Constellation: starlink
LEOCIRCULAR

关于 Starlink 31510

正在加载描述...

实时位置

正在加载3D地球...

即将过境

高度历史

Altitude vs Time

uPlot chart will show altitude changes over time

两行轨道根数

1 59575U 24076M 25353.66959134 .00000399 00000-0 24012-4 0 9995
2 59575 42.9996 97.5474 0000682 240.7232 119.3552 15.27571886 94306
Epoch: Dec 19, 2025 • Age: 24 hours

当前状态

高度 486.6 km
速度 7.63 km/s
星下点 43.01°N, 153.14°W
发射日期 Apr 23, 2024
运行时间 1.6 years
类型 internet

技术详情

分类 Payload
质量 730.00 kg
干质量 700.00 kg
总质量 730.00 kg
长度 0.30 m
直径 4.10 m
跨度 29.00 m
形状 Box + pan
制造商 SPXS
平台类型 Starlink V2M
阶段状态 In Orbit
所有者/国家 SPXS/US

大型星座

Loading constellations...